This demonstration page uses our WeatherBlox Daily Observations layout. Learn more.

Left ArrowRight Arrow

Hourly Observations for September 18, 2021

Temp ( °F °C ) Dew Point ( °F °C ) Humidity (%) Winds ( mph kmh ) Pressure ( in mb ) Visibility ( mi km ) Precip ( " mm )
12:15 am 00:15 Partly Cloudy 66 19 66 19 100 100 N N/A 30.12 1020 10 16 N/A
12:35 am 00:35 Mostly Cloudy 66 19 66 19 100 100 ENE 3 6 30.12 1020 10 16 N/A
12:55 am 00:55 Mostly Cloudy 66 19 66 19 100 100 N N/A 30.11 1020 10 16 N/A
1:15 am 01:15 Partly Cloudy 66 19 66 19 100 100 N N/A 30.12 1020 10 16 N/A
1:35 am 01:35 Partly Cloudy 66 19 66 19 100 100 SSE 3 6 30.12 1020 10 16 N/A
1:55 am 01:55 Clear 66 19 66 19 100 100 N N/A 30.12 1020 10 16 N/A
2:15 am 02:15 Clear 64 18 64 18 100 100 N N/A 30.12 1020 10 16 N/A
2:35 am 02:35 Clear 64 18 64 18 100 100 N N/A 30.12 1020 10 16 N/A
2:55 am 02:55 Partly Cloudy 63 17 63 17 100 100 N N/A 30.13 1020 10 16 N/A
3:15 am 03:15 Partly Cloudy 64 18 64 18 100 100 N N/A 30.12 1020 10 16 N/A
3:35 am 03:35 Clear 64 18 64 18 100 100 N N/A 30.12 1020 10 16 N/A
3:55 am 03:55 Clear 64 18 64 18 100 100 N N/A 30.12 1020 10 16 N/A
4:15 am 04:15 Clear 63 17 63 17 100 100 N N/A 30.13 1020 7 11 N/A
4:35 am 04:35 Clear 63 17 63 17 100 100 SE 3 6 30.13 1020 10 16 N/A
4:55 am 04:55 Clear 63 17 63 17 100 100 N N/A 30.12 1020 7 11 N/A
5:15 am 05:15 Clear 61 16 61 16 100 100 N N/A 30.13 1020 10 16 N/A
5:35 am 05:35 Clear 63 17 63 17 100 100 N N/A 30.13 1020 5 8 N/A
5:55 am 05:55 Clear 61 16 61 16 100 100 N N/A 30.13 1020 7 11 N/A
6:15 am 06:15 Clear 61 16 61 16 100 100 N N/A 30.14 1021 5 8 N/A
6:35 am 06:35 Mostly Cloudy 61 16 61 16 100 100 N N/A 30.14 1021 1 1 N/A
6:55 am 06:55 Clear 61 16 61 16 100 100 N N/A 30.14 1021 4 6 N/A
7:15 am 07:15 Clear 61 16 61 16 100 100 N N/A 30.14 1021 7 11 N/A
7:35 am 07:35 Sunny 61 16 61 16 100 100 N N/A 30.15 1021 4 6 N/A
7:55 am 07:55 Sunny 61 16 61 16 100 100 N N/A 30.15 1021 7 11 N/A
8:15 am 08:15 Sunny 61 16 61 16 100 100 N N/A 30.16 1021 5 8 N/A
8:35 am 08:35 Sunny 64 18 64 18 100 100 N N/A 30.14 1021 7 11 N/A
8:55 am 08:55 Sunny 68 20 68 20 100 100 N N/A 30.15 1021 7 11 N/A
9:15 am 09:15 Sunny 70 21 70 21 100 100 N N/A 30.16 1021 10 16 N/A
9:35 am 09:35 Sunny 73 23 72 22 94 94 N N/A 30.14 1021 10 16 N/A
9:55 am 09:55 Sunny 75 24 72 22 89 89 N N/A 30.15 1021 10 16 N/A
10:15 am 10:15 Sunny 77 25 72 22 83 83 N N/A 30.14 1021 10 16 N/A
10:35 am 10:35 Sunny 79 26 72 22 79 79 N N/A 30.15 1021 10 16 N/A
10:55 am 10:55 Sunny 79 26 72 22 79 79 N N/A 30.14 1021 10 16 N/A
11:15 am 11:15 Sunny 81 27 72 22 74 74 N N/A 30.14 1021 10 16 N/A
11:35 am 11:35 Sunny 82 28 72 22 70 70 N N/A 30.13 1020 10 16 N/A
11:55 am 11:55 Sunny 84 29 70 21 62 62 N N/A 30.13 1020 10 16 N/A
12:15 pm 12:15 Sunny 84 29 68 20 58 58 N N/A 30.12 1020 10 16 N/A
12:35 pm 12:35 Sunny 86 30 68 20 55 55 N N/A 30.12 1020 10 16 N/A
12:55 pm 12:55 Sunny 86 30 66 19 52 52 N N/A 30.11 1020 10 16 N/A
1:15 pm 13:15 Mostly Cloudy 86 30 68 20 55 55 NNW 3 6 30.11 1020 10 16 N/A
1:35 pm 13:35 Mostly Cloudy 86 30 66 19 52 52 N N/A 30.11 1020 10 16 N/A
1:55 pm 13:55 Partly Cloudy 84 29 66 19 55 55 N N/A 30.10 1019 10 16 N/A
2:15 pm 14:15 Mostly Cloudy 86 30 64 18 49 49 N N/A 30.09 1019 10 16 N/A
2:35 pm 14:35 Partly Cloudy 88 31 66 19 49 49 WNW 7 11 30.08 1019 10 16 N/A
2:55 pm 14:55 Partly Cloudy 88 31 64 18 46 46 N N/A 30.07 1018 10 16 N/A
3:15 pm 15:15 Mostly Cloudy 86 30 64 18 49 49 N N/A 30.08 1019 10 16 N/A
3:35 pm 15:35 Cloudy 88 31 64 18 46 46 SW 3 6 30.07 1018 10 16 N/A
3:55 pm 15:55 Partly Cloudy 88 31 64 18 46 46 N N/A 30.07 1018 10 16 N/A
4:15 pm 16:15 Partly Cloudy 84 29 64 18 51 51 N N/A 30.07 1018 10 16 N/A
4:35 pm 16:35 Partly Cloudy 88 31 64 18 46 46 N N/A 30.06 1018 10 16 N/A
4:55 pm 16:55 Partly Cloudy 88 31 63 17 43 43 N N/A 30.06 1018 10 16 N/A
5:15 pm 17:15 Partly Cloudy 88 31 64 18 46 46 E 3 6 30.05 1017 10 16 N/A
5:35 pm 17:35 Partly Cloudy 88 31 64 18 46 46 ENE 5 7 30.05 1017 10 16 N/A
5:55 pm 17:55 Mostly Cloudy 86 30 64 18 49 49 N N/A 30.05 1018 10 16 N/A
6:15 pm 18:15 Partly Cloudy 86 30 61 16 43 43 N N/A 30.05 1018 10 16 N/A
6:35 pm 18:35 Sunny 82 28 63 17 51 51 N N/A 30.05 1018 10 16 N/A
6:55 pm 18:55 Sunny 84 29 68 20 58 58 N N/A 30.04 1017 10 16 N/A
7:15 pm 19:15 Sunny 82 28 70 21 66 66 N N/A 30.05 1018 10 16 N/A
7:35 pm 19:35 Sunny 79 26 68 20 70 70 N N/A 30.06 1018 10 16 N/A
7:55 pm 19:55 Clear 77 25 68 20 74 74 N N/A 30.06 1018 10 16 N/A
8:15 pm 20:15 Clear 72 22 72 22 100 100 N N/A 30.08 1019 10 16 N/A
8:35 pm 20:35 Clear 72 22 70 21 94 94 N N/A 30.08 1019 10 16 N/A
8:55 pm 20:55 Clear 70 21 70 21 100 100 N N/A 30.09 1019 10 16 N/A
9:15 pm 21:15 Clear 70 21 70 21 100 100 N N/A 30.10 1019 10 16 N/A
9:35 pm 21:35 Clear 70 21 68 20 94 94 N N/A 30.10 1019 10 16 N/A
9:55 pm 21:55 Clear 68 20 68 20 100 100 N N/A 30.10 1019 10 16 N/A
10:15 pm 22:15 Clear 66 19 66 19 100 100 N N/A 30.11 1020 10 16 N/A
10:35 pm 22:35 Clear 66 19 66 19 100 100 N N/A 30.11 1020 10 16 N/A
10:55 pm 22:55 Clear 66 19 66 19 100 100 N N/A 30.11 1020 10 16 N/A
11:15 pm 23:15 Clear 66 19 66 19 100 100 N N/A 30.11 1020 10 16 N/A
11:35 pm 23:35 Clear 66 19 66 19 100 100 N N/A 30.11 1020 10 16 N/A
11:55 pm 23:55 Clear 64 18 64 18 100 100 N N/A 30.12 1020 10 16 N/A

Powered by AerisWeather